| time (UTC) | temp F | wind direction | speed MPH | gust MPH | rain 1hr in | rain 24hr in | rain mn in | humidity % | barometer mb |
| 20260509203020 | 47 | 167 | 0.0 | 0.0 | 0.00 | 0.00 | 0.00 | 71 | 1019.1 |
| 20260509201521 | 48 | 165 | 0.0 | 0.0 | 0.00 | 0.00 | 0.00 | 68 | 1019.0 |
| 20260509200020 | 48 | 165 | 0.0 | 0.0 | 0.00 | 0.00 | 0.00 | 66 | 1019.1 |
| 20260509194521 | 50 | 165 | 0.0 | 0.0 | 0.00 | 0.00 | 0.00 | 63 | 1019.0 |
| 20260509193025 | 51 | 165 | 0.0 | 0.0 | 0.00 | 0.00 | 0.00 | 60 | 1019.0 |
| 20260509191525 | 52 | 165 | 0.0 | 0.0 | 0.00 | 0.00 | 0.00 | 56 | 1018.8 |
| 20260509190018 | 53 | 165 | 0.0 | 0.0 | 0.00 | 0.00 | 0.00 | 52 | 1018.8 |
| 20260509184529 | 55 | 167 | 0.0 | 0.0 | 0.00 | 0.00 | 0.00 | 48 | 1018.5 |
| 20260509183017 | 56 | 167 | 0.0 | 0.0 | 0.00 | 0.00 | 0.00 | 45 | 1018.5 |
| 20260509181516 | 57 | 168 | 0.0 | 0.0 | 0.00 | 0.00 | 0.00 | 45 | 1018.6 |
| 20260509180017 | 58 | 171 | 0.0 | 0.0 | 0.00 | 0.00 | 0.00 | 45 | 1018.6 |
| 20260509174515 | 59 | 168 | 0.0 | 0.0 | 0.00 | 0.00 | 0.00 | 43 | 1018.6 |
| 20260509173014 | 59 | 163 | 0.0 | 0.0 | 0.00 | 0.00 | 0.00 | 41 | 1018.7 |
| 20260509171517 | 61 | 163 | 0.0 | 0.0 | 0.00 | 0.00 | 0.00 | 39 | 1018.7 |
| 20260509170015 | 64 | 202 | 0.0 | 0.0 | 0.00 | 0.00 | 0.00 | 38 | 1018.8 |
| 20260509164512 | 64 | 228 | 0.0 | 0.0 | 0.00 | 0.00 | 0.00 | 39 | 1018.9 |
| 20260509163013 | 64 | 232 | 2.0 | 0.0 | 0.00 | 0.00 | 0.00 | 37 | 1018.8 |
| 20260509161511 | 64 | 134 | 0.0 | 0.0 | 0.00 | 0.00 | 0.00 | 38 | 1018.9 |
| 20260509160009 | 63 | 30 | 0.0 | 0.0 | 0.00 | 0.00 | 0.00 | 42 | 1019.2 |
| 20260509154508 | 63 | 30 | 0.0 | 0.0 | 0.00 | 0.00 | 0.00 | 43 | 1019.4 |
| 20260509153005 | 63 | 29 | 0.0 | 0.0 | 0.00 | 0.00 | 0.00 | 42 | 1019.5 |
| 20260509151505 | 61 | 26 | 0.0 | 0.0 | 0.00 | 0.00 | 0.00 | 44 | 1019.5 |
| 20260509150002 | 61 | 360 | 0.0 | 0.0 | 0.00 | 0.00 | 0.00 | 42 | 1019.8 |
| 20260509144507 | 61 | 18 | 0.0 | 0.0 | 0.00 | 0.00 | 0.00 | 41 | 1019.8 |
| 20260509143129 | 60 | 44 | 0.0 | 0.0 | 0.00 | 0.00 | 0.00 | 43 | 1020.1 |
| 20260509141558 | 61 | 355 | 0.0 | 0.0 | 0.00 | 0.00 | 0.00 | 43 | 1020.1 |
| 20260509140106 | 60 | 9 | 0.0 | 0.0 | 0.00 | 0.00 | 0.00 | 44 | 1020.4 |
| 20260509134610 | 61 | 10 | 1.0 | 0.0 | 0.00 | 0.00 | 0.00 | 42 | 1020.6 |
| 20260509133054 | 61 | 38 | 0.0 | 0.0 | 0.00 | 0.00 | 0.00 | 43 | 1020.7 |
| 20260509131553 | 60 | 13 | 1.0 | 0.0 | 0.00 | 0.00 | 0.00 | 43 | 1021.0 |
| 20260509130059 | 60 | 11 | 1.0 | 0.0 | 0.00 | 0.00 | 0.00 | 43 | 1020.9 |
| 20260509124550 | 62 | 42 | 0.0 | 0.0 | 0.00 | 0.00 | 0.00 | 43 | 1021.1 |
| 20260509123103 | 62 | 28 | 0.0 | 0.0 | 0.00 | 0.00 | 0.00 | 44 | 1021.3 |
| 20260509121607 | 62 | 351 | 0.0 | 0.0 | 0.00 | 0.00 | 0.00 | 43 | 1021.5 |
| 20260509120046 | 60 | 22 | 1.0 | 0.0 | 0.00 | 0.00 | 0.00 | 46 | 1021.7 |
| 20260509114545 | 61 | 321 | 1.0 | 0.0 | 0.00 | 0.00 | 0.00 | 44 | 1021.9 |
| 20260509113047 | 62 | 34 | 1.0 | 0.0 | 0.00 | 0.00 | 0.00 | 39 | 1021.9 |
| 20260509111558 | 64 | 76 | 0.0 | 0.0 | 0.00 | 0.00 | 0.00 | 36 | 1022.0 |
| 20260509110042 | 66 | 214 | 0.0 | 0.0 | 0.00 | 0.00 | 0.00 | 33 | 1022.0 |
| 20260509104545 | 65 | 217 | 1.0 | 0.0 | 0.00 | 0.00 | 0.00 | 29 | 1022.1 |
| 20260509103048 | 65 | 64 | 0.0 | 0.0 | 0.00 | 0.00 | 0.00 | 27 | 1022.0 |
| 20260509101608 | 66 | 137 | 0.0 | 0.0 | 0.00 | 0.00 | 0.00 | 27 | 1022.1 |
| 20260509100041 | 65 | 145 | 0.0 | 0.0 | 0.00 | 0.00 | 0.00 | 23 | 1022.2 |
| 20260509094539 | 64 | 157 | 0.0 | 0.0 | 0.00 | 0.00 | 0.00 | 23 | 1022.3 |
| 20260509093033 | 64 | 82 | 0.0 | 0.0 | 0.00 | 0.00 | 0.00 | 24 | 1022.3 |
| 20260509091539 | 62 | 44 | 0.0 | 0.0 | 0.00 | 0.00 | 0.00 | 23 | 1022.3 |
| 20260509090037 | 63 | 149 | 0.0 | 0.0 | 0.00 | 0.00 | 0.00 | 25 | 1022.4 |
| 20260509084525 | 61 | 115 | 0.0 | 0.0 | 0.00 | 0.00 | 0.00 | 31 | 1022.4 |
| 20260509083022 | 59 | 113 | 0.0 | 0.0 | 0.00 | 0.00 | 0.00 | 31 | 1022.4 |
| 20260509081525 | 59 | 91 | 0.0 | 0.0 | 0.00 | 0.00 | 0.00 | 32 | 1022.5 |
| 20260509080016 | 57 | 117 | 0.0 | 0.0 | 0.00 | 0.00 | 0.00 | 38 | 1022.6 |
| 20260509074512 | 54 | 116 | 0.0 | 0.0 | 0.00 | 0.00 | 0.00 | 41 | 1022.7 |
| 20260509073007 | 53 | 109 | 0.0 | 0.0 | 0.00 | 0.00 | 0.00 | 43 | 1022.7 |
| 20260509071505 | 52 | 116 | 0.0 | 0.0 | 0.00 | 0.00 | 0.00 | 49 | 1022.8 |
| 20260509070009 | 51 | 116 | 0.0 | 0.0 | 0.00 | 0.00 | 0.00 | 48 | 1022.9 |
| 20260509064501 | 51 | 137 | 0.0 | 0.0 | 0.00 | 0.00 | 0.00 | 53 | 1022.9 |
| 20260509063059 | 51 | 137 | 0.0 | 0.0 | 0.00 | 0.00 | 0.00 | 56 | 1023.0 |
| 20260509061556 | 50 | 137 | 0.0 | 0.0 | 0.00 | 0.00 | 0.00 | 62 | 1022.9 |
| 20260509060052 | 46 | 186 | 0.0 | 0.0 | 0.00 | 0.00 | 0.00 | 70 | 1022.9 |
| 20260509054558 | 44 | 190 | 0.0 | 0.0 | 0.00 | 0.00 | 0.00 | 73 | 1023.0 |
| 20260509053048 | 42 | 190 | 0.0 | 0.0 | 0.00 | 0.00 | 0.00 | 75 | 1023.0 |
| 20260509051542 | 41 | 194 | 0.0 | 0.0 | 0.00 | 0.00 | 0.00 | 77 | 1022.9 |
| 20260509050042 | 39 | 194 | 0.0 | 0.0 | 0.00 | 0.00 | 0.00 | 79 | 1023.1 |
| 20260509044541 | 39 | 194 | 0.0 | 0.0 | 0.00 | 0.00 | 0.00 | 80 | 1023.0 |
| 20260509043040 | 39 | 194 | 0.0 | 0.0 | 0.00 | 0.00 | 0.00 | 81 | 1023.1 |
| 20260509041608 | 38 | 194 | 0.0 | 0.0 | 0.00 | 0.00 | 0.00 | 80 | 1023.0 |
| 20260509040040 | 37 | 194 | 0.0 | 0.0 | 0.00 | 0.00 | 0.00 | 79 | 1022.9 |
| 20260509034538 | 37 | 194 | 0.0 | 0.0 | 0.00 | 0.00 | 0.00 | 76 | 1023.1 |
| 20260509033038 | 37 | 194 | 0.0 | 0.0 | 0.00 | 0.00 | 0.00 | 74 | 1023.1 |
| 20260509031538 | 37 | 194 | 0.0 | 0.0 | 0.00 | 0.00 | 0.00 | 75 | 1023.1 |
| 20260509030035 | 37 | 194 | 0.0 | 0.0 | 0.00 | 0.00 | 0.00 | 73 | 1023.2 |
| 20260509024534 | 37 | 194 | 0.0 | 0.0 | 0.00 | 0.00 | 0.00 | 73 | 1023.2 |
| 20260509023034 | 37 | 194 | 0.0 | 0.0 | 0.00 | 0.00 | 0.00 | 74 | 1023.2 |
| 20260509021536 | 37 | 194 | 0.0 | 0.0 | 0.00 | 0.00 | 0.00 | 76 | 1023.4 |
| 20260509020043 | 37 | 194 | 0.0 | 0.0 | 0.00 | 0.00 | 0.00 | 76 | 1023.3 |
| 20260509014531 | 37 | 194 | 0.0 | 0.0 | 0.00 | 0.00 | 0.00 | 74 | 1023.5 |
| 20260509013037 | 38 | 194 | 0.0 | 0.0 | 0.00 | 0.00 | 0.00 | 73 | 1023.6 |
| 20260509011525 | 38 | 194 | 0.0 | 0.0 | 0.00 | 0.00 | 0.00 | 72 | 1023.6 |
| 20260509010024 | 38 | 194 | 0.0 | 0.0 | 0.00 | 0.00 | 0.00 | 72 | 1023.7 |
| 20260509004522 | 39 | 194 | 0.0 | 0.0 | 0.00 | 0.00 | 0.00 | 71 | 1023.7 |
| 20260509003020 | 39 | 194 | 0.0 | 0.0 | 0.00 | 0.00 | 0.00 | 71 | 1023.8 |
| 20260509001519 | 39 | 194 | 0.0 | 0.0 | 0.00 | 0.00 | 0.00 | 73 | 1023.9 |
| 20260509000018 | 39 | 194 | 0.0 | 0.0 | 0.00 | 0.00 | 0.00 | 73 | 1023.9 |
| 20260508234516 | 40 | 194 | 0.0 | 0.0 | 0.00 | 0.00 | 0.00 | 75 | 1024.0 |
| 20260508233017 | 40 | 194 | 0.0 | 0.0 | 0.00 | 0.00 | 0.00 | 77 | 1024.1 |
| 20260508231512 | 41 | 194 | 0.0 | 0.0 | 0.00 | 0.00 | 0.00 | 79 | 1024.1 |
| 20260508230010 | 41 | 194 | 0.0 | 0.0 | 0.00 | 0.00 | 0.00 | 79 | 1024.0 |
| 20260508224514 | 41 | 194 | 0.0 | 0.0 | 0.00 | 0.00 | 0.00 | 76 | 1024.1 |
| 20260508223006 | 42 | 194 | 0.0 | 0.0 | 0.00 | 0.00 | 0.00 | 74 | 1024.0 |
| 20260508221507 | 42 | 194 | 0.0 | 0.0 | 0.00 | 0.00 | 0.00 | 74 | 1023.9 |
| 20260508220003 | 42 | 194 | 0.0 | 0.0 | 0.00 | 0.00 | 0.00 | 73 | 1023.9 |
| 20260508214511 | 42 | 194 | 0.0 | 0.0 | 0.00 | 0.00 | 0.00 | 73 | 1024.0 |
| 20260508213002 | 43 | 194 | 0.0 | 0.0 | 0.00 | 0.00 | 0.00 | 72 | 1024.0 |
| 20260508211600 | 43 | 194 | 0.0 | 0.0 | 0.00 | 0.00 | 0.00 | 71 | 1023.8 |
| 20260508210100 | 44 | 194 | 0.0 | 0.0 | 0.00 | 0.00 | 0.00 | 69 | 1023.7 |
| 20260508204601 | 45 | 194 | 0.0 | 0.0 | 0.00 | 0.00 | 0.00 | 67 | 1023.7 |